CW9561 Weather Reports


time (UTC)temp
F
wind
direction
speed
knots
gust
knots
rain 1hr
in
rain 24hr
in
rain mn
in
humidity
%
barometer
mb
20260506171019 29 21 3.5 0.0 0.00 0.00 0.01 78 1016.4
20260506170033 28 350 3.5 0.0 0.00 0.00 0.01 79 1016.9
20260506165025 27 10 0.9 0.0 0.00 0.00 0.00 81 1016.7
20260506163038 26 360 1.7 0.0 0.00 0.00 0.00 84 1016.2
20260506162030 26 326 0.9 0.0 0.00 0.00 0.00 85 1016.1
20260506161024 25 342 0.9 0.0 0.00 0.00 0.00 85 1016.2
20260506160041 25 5 0.9 0.0 0.00 0.00 0.00 86 1015.9
20260506153026 25 314 0.9 0.0 0.00 0.00 0.00 83 1014.9
20260506152023 25 319 0.9 0.0 0.00 0.00 0.00 82 1014.8
20260506151019 25 289 0.9 0.0 0.00 0.00 0.00 84 1014.7
20260506150038 24 286 1.7 0.0 0.00 0.00 0.00 84 1014.6
20260506145030 24 263 1.7 0.0 0.00 0.00 0.00 85 1014.6
20260506144023 24 346 1.7 0.0 0.00 0.00 0.00 85 1014.4
20260506143039 24 286 0.9 0.0 0.00 0.00 0.00 86 1014.6
20260506142034 24 246 0.9 0.0 0.00 0.00 0.00 86 1014.4
20260506141026 23 304 1.7 0.0 0.00 0.00 0.00 86 1014.9
20260506140023 23 5 0.9 0.0 0.00 0.00 0.00 86 1014.9
20260506135035 23 286 0.9 0.0 0.00 0.00 0.00 86 1014.6
20260506134031 23 120 0.0 0.0 0.00 0.00 0.00 85 1014.4
20260506133021 23 340 0.0 0.0 0.00 0.00 0.00 86 1014.2
20260506132034 23 343 0.0 0.0 0.00 0.00 0.00 86 1013.9
20260506131028 23 348 0.0 0.0 0.00 0.00 0.00 87 1013.6
20260506130029 23 348 1.7 0.0 0.00 0.00 0.00 87 1013.4
20260506125022 23 350 0.9 0.0 0.00 0.00 0.00 87 1013.1
20260506123031 24 293 0.9 0.0 0.00 0.00 0.00 88 1013.5
20260506122023 23 290 0.9 0.0 0.00 0.00 0.00 88 1013.4
20260506121023 24 300 1.7 0.0 0.00 0.00 0.00 88 1013.0
20260506115036 24 279 1.7 0.0 0.00 0.00 0.00 88 1012.8
20260506114029 24 279 0.9 0.0 0.00 0.00 0.00 88 1012.6
20260506113021 24 324 0.0 0.0 0.00 0.00 0.00 89 1012.8
20260506112031 24 340 0.0 0.0 0.00 0.00 0.00 89 1012.6
20260506111028 24 345 0.9 0.0 0.00 0.00 0.00 89 1012.5
20260506110022 24 317 0.9 0.0 0.00 0.00 0.00 88 1012.4
20260506105035 24 311 0.0 0.0 0.00 0.00 0.00 88 1012.1
20260506104026 24 333 0.9 0.0 0.00 0.00 0.00 88 1012.2
20260506102020 25 322 0.0 0.0 0.00 0.00 0.00 87 1012.1
20260506101033 25 336 0.0 0.0 0.00 0.00 0.00 88 1012.1
20260506095033 25 338 0.9 0.0 0.00 0.00 0.00 87 1012.7
20260506094030 25 324 0.9 0.0 0.00 0.00 0.00 86 1012.7
20260506092029 25 228 0.0 0.0 0.00 0.00 0.00 86 1012.6
20260506091024 25 296 0.0 0.0 0.00 0.00 0.00 87 1012.1
20260506090019 26 296 0.9 0.0 0.00 0.00 0.00 87 1012.2
20260506085020 26 304 0.9 0.0 0.00 0.00 0.00 87 1012.2
20260506083033 26 305 0.9 0.0 0.00 0.00 0.00 88 1011.8
20260506082030 26 41 0.0 0.0 0.00 0.00 0.00 88 1012.1
20260506081029 26 198 0.9 0.0 0.00 0.00 0.00 88 1011.8
20260506073030 27 311 2.6 0.0 0.00 0.00 0.00 89 1012.8
20260506062034 31 105 0.0 0.0 0.00 0.00 0.00 94 1011.8
20260506061030 31 105 0.9 0.0 0.00 0.00 0.00 94 1011.5
20260506051038 31 79 0.0 0.0 0.00 0.00 0.20 94 1011.0
20260506045031 32 79 0.0 0.0 0.00 0.00 0.20 94 1010.9
20260506044030 31 79 0.0 0.0 0.00 0.00 0.20 93 1011.1
20260506043027 32 79 0.0 0.0 0.00 0.00 0.20 93 1011.2
20260506041037 32 79 0.0 0.0 0.00 0.00 0.20 93 1011.2
20260506040033 32 79 0.0 0.0 0.00 0.00 0.20 93 1011.2
20260506035028 32 79 0.0 0.0 0.00 0.00 0.20 93 1011.0
20260506034028 32 79 0.0 0.0 0.00 0.00 0.20 93 1011.6
20260506033021 32 79 0.0 0.0 0.00 0.00 0.20 93 1011.7
20260506032037 32 79 0.0 0.0 0.00 0.00 0.20 93 1011.6
20260506031030 33 79 0.0 0.0 0.00 0.00 0.20 93 1011.6
20260506030023 33 79 0.0 0.0 0.00 0.00 0.20 93 1011.3
20260506025042 33 79 0.0 0.0 0.00 0.00 0.20 94 1011.1
20260506023028 34 79 0.0 0.0 0.00 0.00 0.20 94 1011.0
20260506022042 34 79 0.0 0.0 0.00 0.00 0.20 94 1010.9
20260506015031 34 83 0.0 0.0 0.00 0.00 0.20 94 1010.5
20260506014030 34 143 0.0 0.0 0.00 0.00 0.20 94 1010.3
20260506013027 34 143 0.0 0.0 0.00 0.00 0.20 94 1010.2
20260506012041 34 143 0.0 0.0 0.00 0.00 0.20 94 1009.9
20260506011018 34 142 0.0 0.0 0.00 0.00 0.20 94 1009.7
20260506005032 34 142 0.0 0.0 0.00 0.00 0.20 93 1009.5
20260506004023 33 143 0.0 0.0 0.00 0.00 0.20 93 1009.5
20260506003036 33 143 0.0 0.0 0.00 0.00 0.20 92 1010.1
20260506002033 34 143 0.9 0.0 0.00 0.00 0.20 92 1010.1
20260506001027 34 150 0.9 0.0 0.00 0.00 0.20 90 1010.0
20260506000040 35 350 0.0 0.0 0.00 0.00 0.20 91 1009.8
20260505235036 35 344 1.7 0.0 0.00 0.00 0.20 92 1009.7
20260505234036 34 283 0.9 0.0 0.00 0.00 0.20 93 1009.8
20260505233035 34 242 0.0 0.0 0.00 0.00 0.20 94 1009.9
20260505232034 34 157 0.0 0.0 0.00 0.00 0.19 94 1010.0
20260505231028 33 157 0.0 0.0 0.00 0.00 0.18 93 1010.1
20260505230029 33 157 0.0 0.0 0.00 0.00 0.17 93 1010.1
20260505225026 34 157 0.0 0.0 0.00 0.00 0.17 93 1010.0
20260505224023 34 157 0.0 0.0 0.00 0.00 0.17 92 1010.1
20260505223023 34 157 0.0 0.0 0.00 0.00 0.17 92 1010.1
20260505222035 36 157 0.0 0.0 0.00 0.00 0.17 92 1009.7
20260505221030 36 22 1.7 0.0 0.00 0.00 0.17 92 1009.9
20260505220033 36 71 1.7 0.0 0.00 0.00 0.17 92 1009.5
20260505214026 35 160 0.0 0.0 0.00 0.00 0.17 92 1009.4
20260505213041 35 161 0.0 0.0 0.00 0.00 0.16 92 1009.6
20260505212035 35 161 0.0 0.0 0.00 0.00 0.15 91 1009.9
20260505211033 35 337 0.0 0.0 0.00 0.00 0.14 91 1009.3
20260505210029 36 337 0.9 0.0 0.00 0.00 0.12 89 1009.7
20260505205022 37 296 2.6 0.0 0.00 0.00 0.11 88 1009.4
20260505204039 39 349 1.7 0.0 0.00 0.00 0.09 84 1009.5
20260505203033 40 265 0.9 0.0 0.00 0.00 0.08 86 1008.8
20260505202033 40 266 0.0 0.0 0.00 0.00 0.08 86 1008.5
20260505201026 40 266 0.0 0.0 0.00 0.00 0.08 88 1008.8
20260505200040 40 229 0.9 0.0 0.00 0.00 0.08 90 1008.7
20260505194030 39 98 3.5 0.0 0.00 0.00 0.08 91 1008.6
20260505193033 39 114 1.7 0.0 0.00 0.00 0.08 92 1008.8
20260505192033 38 119 0.9 0.0 0.00 0.00 0.08 91 1009.0
20260505190032 38 103 3.5 0.0 0.00 0.00 0.08 92 1009.0
20260505185031 39 69 3.5 0.0 0.00 0.00 0.08 92 1009.1
20260505184025 38 96 1.7 0.0 0.00 0.00 0.08 91 1009.2
20260505183028 39 51 1.7 0.0 0.00 0.00 0.08 91 1009.2
20260505182028 38 271 0.0 0.0 0.00 0.00 0.08 93 1009.3
20260505181022 37 284 0.9 0.0 0.00 0.00 0.08 93 1009.3
20260505180021 37 179 0.0 0.0 0.00 0.00 0.08 93 1010.3
20260505173037 38 337 0.0 0.0 0.00 0.00 0.06 91 1010.0
20260505172033 38 90 0.0 0.0 0.00 0.00 0.05 92 1010.0